sat.trackr.live / text

‹ back to catalog

STARLINK-31708

NORAD 59439 · 2024-065U

PAYLOAD ACTIVE UNKNOWN

§ Identity

Operator
Country
US
Launch date
2024-04-07
Launch site
AFWTR
Launch vehicle
Mass (kg)
RCS (m²)

Purposes: comms

External: N2YO · Heavens-Above · Gunter

§ Orbital elements

Epoch: 2026-05-25T02:42:23.969952Z

Period
94.11 min
Inclination
53.1607°
Eccentricity
0.0001086
Mean motion
15.30188220 rev/d
Perigee alt
474.5 km
Apogee alt
476.0 km
Semi-major
6,853.4 km
B*
3.6812e-5
RAAN
286.4424°
Arg perigee
102.6212°
Mean anomaly
257.4910°
Rev number
12,063

§ Raw data

STARLINK-317081 59439U 24065U   26145.11277743  .00000731  00000+0  36812-4 0  99912 59439  53.1607 286.4424 0001086 102.6212 257.4910 15.30188220120633

JSON: /api/v1/satellites/59439 · /tle

For live sub-satellite position, see the globe view (requires WebGL).

§ Visibility from observer

Set your observer location to see the next 7 days of passes ≥ 10°. The values pass through the URL so the page stays shareable.

No JS? Fill the form by hand. The geolocation button needs JavaScript.